Terminal Aerodrome Forecast
Issued by NWS Wichita, KS

Home | Current Version | Previous Version | Text Only | Print | Product List | Glossary Off
Versions: 1 2 3 4 5 6 7 8 9 10 11 12 13 14 15 16 17 18 19 20 21

000
FTUS43 KICT 181530 AAB
TAFICT
TAF AMD
KICT 181530Z 1816/1912 18005KT P6SM SKC
     FM181800 17011KT P6SM SCT200
     FM190200 16006KT P6SM BKN080
     FM190500 16008KT P6SM BKN009
     FM190700 16007KT P6SM BKN003
     FM190900 16006KT 4SM BR BKN003=

USA.gov is the U.S. government's official web portal to all federal, state and local government web resources and services.